Tracking 30743 objects as of 22-Jun-2025
HD Live streaming from Space Station
objects crossing your sky now

COSMOS 1375 DEB

Track COSMOS 1375 DEB now!
10-day predictions


NORAD ID: 17799
Int'l Code: 1982-055AR
Perigee: 891.4 km
Apogee: 940.3 km
Inclination: 65.8 °
Period: 103.2 minutes
Semi major axis: 7286 km
RCS: 0.043 m2 (small)
Launch date: June 6, 1982
Source: Commonwealth of Independent States (former USSR) (CIS)
Launch site: PLESETSK MISSILE AND SPACE COMPLEX (PKMTR)

Note: This is SATELLITE DEBRIS
Your satellite tracking list
Your tracking list is empty




NASA's NSSDC Master Catalog

Two Line Element Set (TLE):
1 17799U 82055AR  25172.27874701  .00000463  00000-0  40002-3 0  9998
2 17799  65.8353 161.5146 0033562 239.2269 135.5218 13.95699359  9453
Source of the keplerian elements: AFSPC